Weather Service Report


687 
ASUS43 KBIS 010710
RWRBIS

NWR BROADCAST TEXT
NATIONAL WEATHER SERVICE BISMARCK ND
200 AM CDT SAT AUG 01 2015

NOTE: "FAIR" INDICATES FEW OR NO CLOUDS BELOW 12,000 FEET WITH NO
SIGNIFICANT WEATHER AND/OR OBSTRUCTIONS TO VISIBILITY.

  
CITY           SKY/WX    TMP DP  RH WIND       PRES   REMARKS
WILLISTON      CLEAR     65  53  65 NE5       30.02F                  
MINOT          CLEAR     63  51  65 W3        30.02R                  
MINOT AFB      CLEAR     54  54  99 W6        30.02R                  
BISMARCK       MOCLDY    64  58  80 NE9       30.04S                  
DICKINSON      CLEAR     59  51  75 E9        30.02F                  
GARRISON         N/A     58  55  90 N3        30.03S                  
HETTINGER ARPT CLEAR     64  46  52 SE6       30.05F                  
JAMESTOWN      CLEAR     60  56  86 CALM      30.02S                  
CROSBY         FAIR      54  54 100 SW5       30.04F                  
HARVEY         FAIR      54  52  94 SW3       30.03S                  
HAZEN          FAIR      59  54  82 CALM      30.04S                  
LINTON         FAIR      55  55 100 E6        30.04S                  
OAKES            N/A     57  57 100 CALM      30.02S                  
STANLEY        FAIR      55  55 100 N6        30.06F                  
$$
  
CITY           SKY/WX    TMP DP  RH WIND       PRES   REMARKS
GRAND FORKS    CLEAR     58  52  80 W7        29.96F                  
GRAND FORKS AF CLEAR     55  51  86 W5        29.97F                  
DEVILS LAKE    CLEAR     57  50  77 CALM      30.00S                  
FARGO          CLEAR     59  55  87 CALM      29.99F                  
CAVALIER       FAIR      57  54  88 W6        29.95F                  
GRAFTON        FAIR      59  55  88 W6        29.97S                  
GWINNER          N/A     63  59  88 CALM      30.02S                  
LANGDON        FAIR      50  48  93 SW5       30.00F                  
ROLLA          PTSUNNY   54  50  87 W5        30.03S                  
WALHALLA       FAIR      61  52  72 MISG      29.96S                  
$$
  
CITY           SKY/WX    TMP DP  RH WIND       PRES   REMARKS
ABERDEEN       CLEAR     57  54  89 SW6       30.02S                  
MOBRIDGE       PTCLDY    68  55  63 E8        30.00F                  
BUFFALO          N/A     69  48  47 S10       29.99F                  
RAPID CITY     CLEAR     67  54  63 S6        30.11F                  
GLASGOW        CLEAR     66  49  54 E13       29.98F                  
SIDNEY         CLEAR    N/A N/A N/A N6        29.98F                  
WOLF POINT     CLEAR     64  50  60 E7        30.00R                  
GLENDIVE       CLEAR     66  48  52 N7        30.00F                  
MILES CITY     CLEAR     67  42  40 NW10      30.01S                  
BAKER          CLEAR     64  46  52 E5        30.03S                  
$$
  
CITY           SKY/WX    TMP DP  RH WIND       PRES   REMARKS
BILLINGS       PTCLDY    73  38  27 SW7       30.12S                  
GREAT FALLS    CLEAR     68  35  29 S13       30.05S                  
REGINA         CLEAR     54  52  94 S6        30.02F                  
ESTEVAN        CLEAR     55  50  82 SE3       30.04S                  
$$


Return to Home page


Western Regional Climate Center, wrcc@dri.edu